Time,TemperatureF,DewpointF,PressureIn,WindDirection,WindDirectionDegrees,WindSpeedMPH,WindSpeedGustMPH,Humidity,HourlyPrecipIn,Conditions,Clouds,dailyrainin,SoftwareType,DateUTC
2013-02-02 00:02:00,7.5,4.7,30.23,South,190,1.0,2.0,88,0.00,,,0.00,Wunderground v.1.15,2013-02-02 06:02:00,
2013-02-02 00:07:00,7.6,4.8,30.22,South,190,1.0,2.0,88,0.00,,,0.00,Wunderground v.1.15,2013-02-02 06:07:00,
2013-02-02 00:13:00,7.7,5.1,30.22,South,190,2.0,2.0,89,0.00,,,0.00,Wunderground v.1.15,2013-02-02 06:13:00,
2013-02-02 00:18:00,7.7,5.1,30.22,SSW,194,0.0,2.0,89,0.00,,,0.00,Wunderground v.1.15,2013-02-02 06:18:00,
2013-02-02 00:23:00,7.8,5.2,30.21,SSW,194,1.0,1.0,89,0.00,,,0.00,Wunderground v.1.15,2013-02-02 06:23:00,
2013-02-02 00:28:00,8.0,5.4,30.21,SSW,194,0.0,1.0,89,0.00,,,0.00,Wunderground v.1.15,2013-02-02 06:28:00,
2013-02-02 00:34:00,8.0,5.4,30.20,SSW,194,1.0,1.0,89,0.00,,,0.00,Wunderground v.1.15,2013-02-02 06:34:00,
2013-02-02 00:40:00,8.1,5.5,30.20,SSW,194,1.0,1.0,89,0.00,,,0.00,Wunderground v.1.15,2013-02-02 06:40:00,
2013-02-02 00:45:00,8.2,5.6,30.20,SSW,196,2.0,2.0,89,0.00,,,0.00,Wunderground v.1.15,2013-02-02 06:45:00,
2013-02-02 00:50:00,8.2,5.6,30.19,SSW,197,0.0,1.0,89,0.00,,,0.00,Wunderground v.1.15,2013-02-02 06:50:00,
2013-02-02 00:55:00,8.3,5.7,30.19,South,188,0.0,2.0,89,0.00,,,0.00,Wunderground v.1.15,2013-02-02 06:55:00,
2013-02-02 01:00:00,8.3,5.7,30.19,South,188,1.0,1.0,89,0.00,,,0.00,Wunderground v.1.15,2013-02-02 07:00:00,
2013-02-02 01:06:00,8.4,5.8,30.19,South,188,2.0,2.0,89,0.00,,,0.00,Wunderground v.1.15,2013-02-02 07:06:00,
2013-02-02 01:11:00,8.5,5.9,30.19,SSW,201,1.0,3.0,89,0.00,,,0.00,Wunderground v.1.15,2013-02-02 07:11:00,
2013-02-02 01:17:00,8.6,6.0,30.18,SSW,201,2.0,3.0,89,0.00,,,0.00,Wunderground v.1.15,2013-02-02 07:17:00,
2013-02-02 01:22:00,8.6,6.0,30.18,SSW,201,0.0,2.0,89,0.00,,,0.00,Wunderground v.1.15,2013-02-02 07:22:00,
2013-02-02 01:27:00,8.7,6.1,30.18,SSW,201,0.0,2.0,89,0.00,,,0.00,Wunderground v.1.15,2013-02-02 07:27:00,
2013-02-02 01:32:00,8.7,6.1,30.18,SSW,201,0.0,0.0,89,0.00,,,0.00,Wunderground v.1.15,2013-02-02 07:32:00,
2013-02-02 01:37:00,8.8,6.2,30.18,SSW,201,0.0,0.0,89,0.00,,,0.00,Wunderground v.1.15,2013-02-02 07:37:00,
2013-02-02 01:43:00,8.9,6.3,30.17,SSW,201,0.0,0.0,89,0.00,,,0.00,Wunderground v.1.15,2013-02-02 07:43:00,
2013-02-02 01:48:00,9.0,6.4,30.17,SSW,201,0.0,1.0,89,0.00,,,0.00,Wunderground v.1.15,2013-02-02 07:48:00,
2013-02-02 01:53:00,9.1,6.5,30.17,SSW,201,0.0,0.0,89,0.00,,,0.00,Wunderground v.1.15,2013-02-02 07:53:00,
2013-02-02 01:58:00,9.2,6.6,30.17,SSW,201,0.0,0.0,89,0.00,,,0.00,Wunderground v.1.15,2013-02-02 07:58:00,
2013-02-02 02:05:00,9.2,6.9,30.17,SSW,201,0.0,0.0,90,0.00,,,0.00,Wunderground v.1.15,2013-02-02 08:05:00,
2013-02-02 02:10:00,9.4,7.1,30.17,SSW,201,0.0,0.0,90,0.00,,,0.00,Wunderground v.1.15,2013-02-02 08:10:00,
2013-02-02 02:15:00,9.4,7.1,30.16,SSW,201,0.0,0.0,90,0.00,,,0.00,Wunderground v.1.15,2013-02-02 08:15:00,
2013-02-02 02:20:00,9.5,7.2,30.16,SSW,201,0.0,0.0,90,0.00,,,0.00,Wunderground v.1.15,2013-02-02 08:20:00,
2013-02-02 02:26:00,9.6,7.3,30.16,SSW,201,0.0,0.0,90,0.00,,,0.00,Wunderground v.1.15,2013-02-02 08:26:00,
2013-02-02 02:31:00,9.6,7.3,30.16,SSW,201,0.0,0.0,90,0.00,,,0.00,Wunderground v.1.15,2013-02-02 08:31:00,
2013-02-02 02:36:00,9.8,7.5,30.16,SSW,201,0.0,0.0,90,0.00,,,0.00,Wunderground v.1.15,2013-02-02 08:36:00,
2013-02-02 02:42:00,9.8,7.5,30.16,SSW,201,0.0,0.0,90,0.00,,,0.00,Wunderground v.1.15,2013-02-02 08:42:00,
2013-02-02 02:47:00,9.9,7.6,30.16,SSW,201,0.0,0.0,90,0.00,,,0.00,Wunderground v.1.15,2013-02-02 08:47:00,
2013-02-02 02:53:00,9.9,7.6,30.15,SSW,201,0.0,0.0,90,0.00,,,0.00,Wunderground v.1.15,2013-02-02 08:53:00,
2013-02-02 02:58:00,9.9,7.6,30.15,SSW,201,0.0,0.0,90,0.00,,,0.00,Wunderground v.1.15,2013-02-02 08:58:00,
2013-02-02 03:03:00,10.0,7.7,30.15,SSW,201,0.0,0.0,90,0.00,,,0.00,Wunderground v.1.15,2013-02-02 09:03:00,
2013-02-02 03:08:00,8.3,6.0,30.15,SSW,199,0.0,0.0,90,0.00,,,0.00,Wunderground v.1.15,2013-02-02 09:08:00,
2013-02-02 03:13:00,8.3,6.0,30.14,SSW,199,0.0,0.0,90,0.00,,,0.00,Wunderground v.1.15,2013-02-02 09:13:00,
2013-02-02 03:18:00,8.3,6.0,30.14,SSW,199,0.0,0.0,90,0.00,,,0.00,Wunderground v.1.15,2013-02-02 09:18:00,
2013-02-02 03:23:00,8.3,6.0,30.14,SSW,199,0.0,0.0,90,0.00,,,0.00,Wunderground v.1.15,2013-02-02 09:23:00,
2013-02-02 03:29:00,8.3,6.0,30.14,SSW,199,0.0,0.0,90,0.00,,,0.00,Wunderground v.1.15,2013-02-02 09:29:00,
2013-02-02 03:34:00,8.3,6.0,30.14,SSW,199,0.0,0.0,90,0.00,,,0.00,Wunderground v.1.15,2013-02-02 09:34:00,
2013-02-02 03:39:00,8.2,5.9,30.14,SSW,199,0.0,0.0,90,0.00,,,0.00,Wunderground v.1.15,2013-02-02 09:39:00,
2013-02-02 03:44:00,8.2,5.9,30.13,SSW,199,0.0,0.0,90,0.00,,,0.00,Wunderground v.1.15,2013-02-02 09:44:00,
2013-02-02 03:49:00,8.2,5.9,30.13,SSW,199,0.0,0.0,90,0.00,,,0.00,Wunderground v.1.15,2013-02-02 09:49:00,
2013-02-02 03:54:00,8.2,5.9,30.13,SSW,199,0.0,1.0,90,0.00,,,0.00,Wunderground v.1.15,2013-02-02 09:54:00,
2013-02-02 04:00:00,8.1,5.8,30.13,SSW,199,0.0,1.0,90,0.00,,,0.00,Wunderground v.1.15,2013-02-02 10:00:00,
2013-02-02 04:05:00,8.1,5.8,30.13,SSW,199,0.0,3.0,90,0.00,,,0.00,Wunderground v.1.15,2013-02-02 10:05:00,
2013-02-02 04:11:00,8.0,5.7,30.13,SSW,199,0.0,0.0,90,0.00,,,0.00,Wunderground v.1.15,2013-02-02 10:11:00,
2013-02-02 04:16:00,8.0,5.7,30.13,SSW,199,0.0,2.0,90,0.00,,,0.00,Wunderground v.1.15,2013-02-02 10:16:00,
2013-02-02 04:22:00,7.9,5.6,30.13,SSW,199,2.0,2.0,90,0.00,,,0.00,Wunderground v.1.15,2013-02-02 10:22:00,
2013-02-02 04:28:00,9.6,7.0,30.13,NE,35,0.0,2.0,89,0.00,,,0.00,Wunderground v.1.15,2013-02-02 10:28:00,
2013-02-02 04:33:00,9.6,7.0,30.12,NE,40,0.0,2.0,89,0.00,,,0.00,Wunderground v.1.15,2013-02-02 10:33:00,
2013-02-02 04:38:00,9.6,7.0,30.12,NNE,31,0.0,2.0,89,0.00,,,0.00,Wunderground v.1.15,2013-02-02 10:38:00,
2013-02-02 04:43:00,9.6,7.0,30.12,NE,38,0.0,1.0,89,0.00,,,0.00,Wunderground v.1.15,2013-02-02 10:43:00,
2013-02-02 04:48:00,9.6,7.0,30.13,NE,35,2.0,3.0,89,0.00,,,0.00,Wunderground v.1.15,2013-02-02 10:48:00,
2013-02-02 04:53:00,9.5,6.9,30.12,North,9,0.0,2.0,89,0.00,,,0.00,Wunderground v.1.15,2013-02-02 10:53:00,
2013-02-02 04:59:00,9.5,6.9,30.12,NE,34,3.0,3.0,89,0.00,,,0.00,Wunderground v.1.15,2013-02-02 10:59:00,
2013-02-02 05:04:00,9.4,6.8,30.13,NE,36,1.0,3.0,89,0.00,,,0.00,Wunderground v.1.15,2013-02-02 11:04:00,
2013-02-02 05:09:00,9.3,6.7,30.12,NNE,32,2.0,4.0,89,0.00,,,0.00,Wunderground v.1.15,2013-02-02 11:09:00,
2013-02-02 05:14:00,9.3,6.7,30.13,NE,40,2.0,3.0,89,0.00,,,0.00,Wunderground v.1.15,2013-02-02 11:14:00,
2013-02-02 05:19:00,9.2,6.6,30.13,NE,34,4.0,4.0,89,0.00,,,0.00,Wunderground v.1.15,2013-02-02 11:19:00,
2013-02-02 05:25:00,9.1,6.5,30.13,NNE,25,1.0,3.0,89,0.00,,,0.00,Wunderground v.1.15,2013-02-02 11:25:00,
2013-02-02 05:30:00,9.1,6.5,30.12,NNE,31,3.0,3.0,89,0.00,,,0.00,Wunderground v.1.15,2013-02-02 11:30:00,
2013-02-02 05:35:00,9.0,6.4,30.13,NNE,31,3.0,4.0,89,0.00,,,0.00,Wunderground v.1.15,2013-02-02 11:35:00,
2013-02-02 05:40:00,9.0,6.4,30.13,NE,35,2.0,2.0,89,0.00,,,0.00,Wunderground v.1.15,2013-02-02 11:40:00,
2013-02-02 05:46:00,9.0,6.4,30.13,NE,46,4.0,4.0,89,0.00,,,0.00,Wunderground v.1.15,2013-02-02 11:46:00,
2013-02-02 05:52:00,8.9,6.3,30.13,North,360,2.0,4.0,89,0.00,,,0.00,Wunderground v.1.15,2013-02-02 11:52:00,
2013-02-02 05:57:00,8.8,6.2,30.13,NNE,17,2.0,6.0,89,0.00,,,0.00,Wunderground v.1.15,2013-02-02 11:57:00,
2013-02-02 06:02:00,7.0,4.7,30.13,NNE,15,2.0,5.0,90,0.00,,,0.00,Wunderground v.1.15,2013-02-02 12:02:00,
2013-02-02 06:07:00,6.9,4.3,30.13,North,10,2.0,5.0,89,0.00,,,0.00,Wunderground v.1.15,2013-02-02 12:07:00,
2013-02-02 06:12:00,6.9,4.3,30.13,NNE,27,1.0,3.0,89,0.00,,,0.00,Wunderground v.1.15,2013-02-02 12:12:00,
2013-02-02 06:17:00,6.9,4.3,30.13,NNE,12,2.0,3.0,89,0.00,,,0.00,Wunderground v.1.15,2013-02-02 12:17:00,
2013-02-02 06:22:00,6.9,4.3,30.13,NNE,24,1.0,3.0,89,0.00,,,0.00,Wunderground v.1.15,2013-02-02 12:22:00,
2013-02-02 06:27:00,6.9,4.3,30.13,NNE,18,0.0,3.0,89,0.00,,,0.00,Wunderground v.1.15,2013-02-02 12:27:00,
2013-02-02 06:33:00,7.0,4.4,30.13,NNE,18,0.0,1.0,89,0.00,,,0.00,Wunderground v.1.15,2013-02-02 12:33:00,
2013-02-02 06:38:00,7.0,4.7,30.13,NE,44,0.0,5.0,90,0.00,,,0.00,Wunderground v.1.15,2013-02-02 12:38:00,
2013-02-02 06:43:00,7.0,4.4,30.13,NNE,15,0.0,2.0,89,0.00,,,0.00,Wunderground v.1.15,2013-02-02 12:43:00,
2013-02-02 06:48:00,6.9,4.3,30.13,NNE,15,0.0,4.0,89,0.00,,,0.00,Wunderground v.1.15,2013-02-02 12:48:00,
2013-02-02 06:53:00,6.9,4.3,30.13,North,11,3.0,3.0,89,0.00,,,0.00,Wunderground v.1.15,2013-02-02 12:53:00,
2013-02-02 06:58:00,6.8,4.2,30.14,ENE,57,3.0,7.0,89,0.00,,,0.00,Wunderground v.1.15,2013-02-02 12:58:00,
2013-02-02 07:03:00,6.8,4.2,30.14,NNE,23,2.0,3.0,89,0.00,,,0.00,Wunderground v.1.15,2013-02-02 13:03:00,
2013-02-02 07:08:00,6.7,4.1,30.14,NE,36,3.0,4.0,89,0.00,,,0.00,Wunderground v.1.15,2013-02-02 13:08:00,
2013-02-02 07:13:00,6.6,4.0,30.14,NNE,24,3.0,6.0,89,0.00,,,0.00,Wunderground v.1.15,2013-02-02 13:13:00,
2013-02-02 07:18:00,6.5,3.9,30.14,NE,42,4.0,6.0,89,0.00,,,0.00,Wunderground v.1.15,2013-02-02 13:18:00,
2013-02-02 07:23:00,6.5,3.9,30.15,North,360,2.0,7.0,89,0.00,,,0.00,Wunderground v.1.15,2013-02-02 13:23:00,
2013-02-02 07:28:00,6.4,3.9,30.15,NNE,29,0.0,7.0,89,0.00,,,0.00,Wunderground v.1.15,2013-02-02 13:28:00,
2013-02-02 07:34:00,6.3,3.8,30.15,NNE,17,4.0,9.0,89,0.00,,,0.00,Wunderground v.1.15,2013-02-02 13:34:00,
2013-02-02 07:39:00,6.2,3.4,30.16,NNW,338,2.0,9.0,88,0.00,,,0.00,Wunderground v.1.15,2013-02-02 13:39:00,
2013-02-02 07:44:00,8.0,4.9,30.16,NNE,15,3.0,5.0,87,0.00,,,0.00,Wunderground v.1.15,2013-02-02 13:44:00,
2013-02-02 07:49:00,8.0,4.9,30.16,NE,36,5.0,8.0,87,0.00,,,0.00,Wunderground v.1.15,2013-02-02 13:49:00,
2013-02-02 07:54:00,7.8,4.7,30.16,NNW,327,3.0,7.0,87,0.00,,,0.00,Wunderground v.1.15,2013-02-02 13:54:00,
2013-02-02 07:59:00,7.8,4.7,30.16,NE,36,3.0,7.0,87,0.00,,,0.00,Wunderground v.1.15,2013-02-02 13:59:00,
2013-02-02 08:04:00,7.8,4.5,30.16,North,5,3.0,7.0,86,0.00,,,0.00,Wunderground v.1.15,2013-02-02 14:04:00,
2013-02-02 08:09:00,7.8,4.5,30.16,NE,47,2.0,7.0,86,0.00,,,0.00,Wunderground v.1.15,2013-02-02 14:09:00,
2013-02-02 08:14:00,7.8,4.5,30.16,NNE,28,3.0,4.0,86,0.00,,,0.00,Wunderground v.1.15,2013-02-02 14:14:00,
2013-02-02 08:20:00,7.9,4.6,30.16,NNW,346,5.0,5.0,86,0.00,,,0.00,Wunderground v.1.15,2013-02-02 14:20:00,
2013-02-02 08:25:00,7.9,4.6,30.16,North,355,0.0,4.0,86,0.00,,,0.00,Wunderground v.1.15,2013-02-02 14:25:00,
2013-02-02 08:30:00,7.9,4.6,30.16,NNW,333,3.0,10.0,86,0.00,,,0.00,Wunderground v.1.15,2013-02-02 14:30:00,
2013-02-02 08:36:00,7.7,4.4,30.16,NE,34,1.0,6.0,86,0.00,,,0.00,Wunderground v.1.15,2013-02-02 14:36:00,
2013-02-02 08:42:00,7.8,4.5,30.16,North,355,2.0,2.0,86,0.00,,,0.00,Wunderground v.1.15,2013-02-02 14:42:00,
2013-02-02 08:47:00,7.7,4.4,30.16,NNE,19,4.0,6.0,86,0.00,,,0.00,Wunderground v.1.15,2013-02-02 14:47:00,
2013-02-02 08:53:00,7.8,4.5,30.17,NNW,343,2.0,4.0,86,0.00,,,0.00,Wunderground v.1.15,2013-02-02 14:53:00,
2013-02-02 08:58:00,7.9,4.6,30.17,NE,40,4.0,4.0,86,0.00,,,0.00,Wunderground v.1.15,2013-02-02 14:58:00,
2013-02-02 09:03:00,8.0,4.7,30.17,NNE,27,3.0,7.0,86,0.00,,,0.00,Wunderground v.1.15,2013-02-02 15:03:00,
2013-02-02 09:08:00,8.0,4.4,30.17,North,355,1.0,7.0,85,0.00,,,0.00,Wunderground v.1.15,2013-02-02 15:08:00,
2013-02-02 09:13:00,8.1,4.5,30.17,NNE,19,3.0,5.0,85,0.00,,,0.00,Wunderground v.1.15,2013-02-02 15:13:00,
2013-02-02 09:18:00,8.2,4.6,30.17,North,355,1.0,5.0,85,0.00,,,0.00,Wunderground v.1.15,2013-02-02 15:18:00,
2013-02-02 09:23:00,8.3,4.7,30.17,NNW,338,4.0,9.0,85,0.00,,,0.00,Wunderground v.1.15,2013-02-02 15:23:00,
2013-02-02 09:28:00,8.5,4.9,30.17,North,355,3.0,9.0,85,0.00,,,0.00,Wunderground v.1.15,2013-02-02 15:28:00,
2013-02-02 09:34:00,8.3,4.5,30.17,NNW,344,7.0,10.0,84,0.00,,,0.00,Wunderground v.1.15,2013-02-02 15:34:00,
2013-02-02 09:39:00,8.2,4.4,30.17,North,350,5.0,10.0,84,0.00,,,0.00,Wunderground v.1.15,2013-02-02 15:39:00,
2013-02-02 09:44:00,8.3,4.7,30.17,North,5,1.0,5.0,85,0.00,,,0.00,Wunderground v.1.15,2013-02-02 15:44:00,
2013-02-02 09:50:00,8.5,4.9,30.17,NNW,339,4.0,4.0,85,0.00,,,0.00,Wunderground v.1.15,2013-02-02 15:50:00,
2013-02-02 09:56:00,8.6,4.8,30.17,NNE,20,9.0,9.0,84,0.00,,,0.00,Wunderground v.1.15,2013-02-02 15:56:00,
2013-02-02 10:01:00,8.7,4.9,30.17,North,9,4.0,4.0,84,0.00,,,0.00,Wunderground v.1.15,2013-02-02 16:01:00,
2013-02-02 10:06:00,8.6,4.8,30.17,North,5,3.0,10.0,84,0.00,,,0.00,Wunderground v.1.15,2013-02-02 16:06:00,
2013-02-02 10:12:00,8.6,4.5,30.17,North,360,6.0,8.0,83,0.00,,,0.00,Wunderground v.1.15,2013-02-02 16:12:00,
2013-02-02 10:17:00,8.6,4.5,30.17,North,9,3.0,8.0,83,0.00,,,0.00,Wunderground v.1.15,2013-02-02 16:17:00,
2013-02-02 10:22:00,8.6,4.5,30.17,NNW,345,2.0,11.0,83,0.00,,,0.00,Wunderground v.1.15,2013-02-02 16:22:00,
2013-02-02 10:28:00,8.6,4.5,30.17,North,5,5.0,11.0,83,0.00,,,0.00,Wunderground v.1.15,2013-02-02 16:28:00,
2013-02-02 10:33:00,8.8,4.7,30.17,NNW,344,4.0,5.0,83,0.00,,,0.00,Wunderground v.1.15,2013-02-02 16:33:00,
2013-02-02 10:38:00,8.9,4.5,30.17,NNW,348,2.0,7.0,82,0.00,,,0.00,Wunderground v.1.15,2013-02-02 16:38:00,
2013-02-02 10:43:00,8.9,4.5,30.17,NNE,30,5.0,7.0,82,0.00,,,0.00,Wunderground v.1.15,2013-02-02 16:43:00,
2013-02-02 10:49:00,8.9,4.5,30.17,NNW,327,3.0,10.0,82,0.00,,,0.00,Wunderground v.1.15,2013-02-02 16:49:00,
2013-02-02 10:54:00,9.0,4.6,30.17,NNE,32,4.0,12.0,82,0.00,,,0.00,Wunderground v.1.15,2013-02-02 16:54:00,
2013-02-02 10:59:00,9.0,4.6,30.17,NNW,347,11.0,12.0,82,0.00,,,0.00,Wunderground v.1.15,2013-02-02 16:59:00,
2013-02-02 11:04:00,8.9,4.5,30.17,NNE,16,3.0,7.0,82,0.00,,,0.00,Wunderground v.1.15,2013-02-02 17:04:00,
2013-02-02 11:09:00,8.9,4.3,30.17,NNW,342,8.0,9.0,81,0.00,,,0.00,Wunderground v.1.15,2013-02-02 17:09:00,
2013-02-02 11:14:00,7.0,2.9,30.17,North,350,2.0,8.0,83,0.00,,,0.00,Wunderground v.1.15,2013-02-02 17:14:00,
2013-02-02 11:20:00,7.1,3.0,30.17,North,355,3.0,8.0,83,0.00,,,0.00,Wunderground v.1.15,2013-02-02 17:20:00,
2013-02-02 11:25:00,7.3,3.2,30.17,NNE,16,1.0,3.0,83,0.00,,,0.00,Wunderground v.1.15,2013-02-02 17:25:00,
2013-02-02 11:30:00,7.6,3.3,30.17,North,360,2.0,4.0,82,0.00,,,0.00,Wunderground v.1.15,2013-02-02 17:30:00,
2013-02-02 11:35:00,7.6,3.3,30.17,North,355,0.0,2.0,82,0.00,,,0.00,Wunderground v.1.15,2013-02-02 17:35:00,
2013-02-02 11:40:00,7.6,3.0,30.17,NNE,25,4.0,5.0,81,0.00,,,0.00,Wunderground v.1.15,2013-02-02 17:40:00,
2013-02-02 11:45:00,7.6,3.0,30.17,NNW,340,3.0,5.0,81,0.00,,,0.00,Wunderground v.1.15,2013-02-02 17:45:00,
2013-02-02 11:51:00,7.6,3.0,30.16,NNE,16,2.0,5.0,81,0.00,,,0.00,Wunderground v.1.15,2013-02-02 17:51:00,
2013-02-02 11:56:00,7.8,3.2,30.16,NNE,14,1.0,5.0,81,0.00,,,0.00,Wunderground v.1.15,2013-02-02 17:56:00,
2013-02-02 12:01:00,8.1,3.5,30.16,NNE,21,1.0,2.0,81,0.00,,,0.00,Wunderground v.1.15,2013-02-02 18:01:00,
2013-02-02 12:07:00,8.1,3.2,30.16,North,5,2.0,4.0,80,0.00,,,0.00,Wunderground v.1.15,2013-02-02 18:07:00,
2013-02-02 12:12:00,8.1,3.2,30.17,North,11,2.0,4.0,80,0.00,,,0.00,Wunderground v.1.15,2013-02-02 18:12:00,
2013-02-02 12:18:00,8.0,3.1,30.17,NNE,31,5.0,6.0,80,0.00,,,0.00,Wunderground v.1.15,2013-02-02 18:18:00,
2013-02-02 12:23:00,8.1,3.2,30.16,North,9,3.0,7.0,80,0.00,,,0.00,Wunderground v.1.15,2013-02-02 18:23:00,
2013-02-02 12:28:00,8.1,3.2,30.16,NNE,13,1.0,10.0,80,0.00,,,0.00,Wunderground v.1.15,2013-02-02 18:28:00,
2013-02-02 12:33:00,10.4,4.9,30.16,NNW,348,3.0,7.0,78,0.00,,,0.00,Wunderground v.1.15,2013-02-02 18:33:00,
2013-02-02 12:38:00,10.5,5.0,30.16,North,5,4.0,11.0,78,0.00,,,0.00,Wunderground v.1.15,2013-02-02 18:38:00,
2013-02-02 12:44:00,10.3,4.5,30.16,North,360,2.0,13.0,77,0.00,,,0.00,Wunderground v.1.15,2013-02-02 18:44:00,
2013-02-02 12:49:00,10.6,5.1,30.16,North,355,5.0,13.0,78,0.00,,,0.00,Wunderground v.1.15,2013-02-02 18:49:00,
2013-02-02 12:54:00,10.8,5.3,30.16,North,349,11.0,12.0,78,0.00,,,0.00,Wunderground v.1.15,2013-02-02 18:54:00,
2013-02-02 12:59:00,10.8,5.0,30.16,NNE,33,3.0,12.0,77,0.00,,,0.00,Wunderground v.1.15,2013-02-02 18:59:00,
2013-02-02 13:05:00,10.8,5.0,30.16,North,355,4.0,9.0,77,0.00,,,0.00,Wunderground v.1.15,2013-02-02 19:05:00,
2013-02-02 13:10:00,11.0,5.2,30.16,North,360,5.0,11.0,77,0.00,,,0.00,Wunderground v.1.15,2013-02-02 19:10:00,
2013-02-02 13:15:00,11.0,4.9,30.16,NNE,24,4.0,9.0,76,0.00,,,0.00,Wunderground v.1.15,2013-02-02 19:15:00,
2013-02-02 13:20:00,10.8,4.7,30.16,NNE,30,5.0,5.0,76,0.00,,,0.00,Wunderground v.1.15,2013-02-02 19:20:00,
2013-02-02 13:25:00,11.0,4.9,30.16,NNW,343,5.0,7.0,76,0.00,,,0.00,Wunderground v.1.15,2013-02-02 19:25:00,
2013-02-02 13:30:00,11.0,4.6,30.16,NNE,15,3.0,4.0,75,0.00,,,0.00,Wunderground v.1.15,2013-02-02 19:30:00,
2013-02-02 13:35:00,11.1,4.7,30.16,NNE,27,4.0,6.0,75,0.00,,,0.00,Wunderground v.1.15,2013-02-02 19:35:00,
2013-02-02 13:40:00,11.1,4.7,30.16,NNW,340,3.0,3.0,75,0.00,,,0.00,Wunderground v.1.15,2013-02-02 19:40:00,
2013-02-02 13:45:00,11.2,4.5,30.16,NNE,15,3.0,9.0,74,0.00,,,0.00,Wunderground v.1.15,2013-02-02 19:45:00,
2013-02-02 13:50:00,11.3,4.6,30.16,North,11,4.0,6.0,74,0.00,,,0.00,Wunderground v.1.15,2013-02-02 19:50:00,
2013-02-02 13:55:00,11.2,4.2,30.16,NNW,336,4.0,11.0,73,0.00,,,0.00,Wunderground v.1.15,2013-02-02 19:55:00,
2013-02-02 14:00:00,11.0,4.0,30.16,NNW,336,4.0,6.0,73,0.00,,,0.00,Wunderground v.1.15,2013-02-02 20:00:00,
2013-02-02 14:05:00,11.3,4.6,30.16,North,355,9.0,9.0,74,0.00,,,0.00,Wunderground v.1.15,2013-02-02 20:05:00,
2013-02-02 14:11:00,11.5,4.5,30.16,NW,325,3.0,3.0,73,0.00,,,0.00,Wunderground v.1.15,2013-02-02 20:11:00,
2013-02-02 14:16:00,11.4,4.1,30.16,North,355,5.0,10.0,72,0.00,,,0.00,Wunderground v.1.15,2013-02-02 20:16:00,
2013-02-02 14:21:00,11.1,3.8,30.16,North,350,5.0,6.0,72,0.00,,,0.00,Wunderground v.1.15,2013-02-02 20:21:00,
2013-02-02 14:26:00,10.9,3.6,30.16,NNW,346,5.0,7.0,72,0.00,,,0.00,Wunderground v.1.15,2013-02-02 20:26:00,
2013-02-02 14:32:00,10.7,3.4,30.16,North,355,1.0,5.0,72,0.00,,,0.00,Wunderground v.1.15,2013-02-02 20:32:00,
2013-02-02 14:37:00,10.7,3.7,30.17,North,355,4.0,7.0,73,0.00,,,0.00,Wunderground v.1.15,2013-02-02 20:37:00,
2013-02-02 14:42:00,10.6,3.6,30.16,NNW,340,3.0,6.0,73,0.00,,,0.00,Wunderground v.1.15,2013-02-02 20:42:00,
2013-02-02 14:47:00,10.5,3.6,30.17,NNW,347,4.0,7.0,73,0.00,,,0.00,Wunderground v.1.15,2013-02-02 20:47:00,
2013-02-02 14:53:00,10.6,3.6,30.17,NNW,345,3.0,6.0,73,0.00,,,0.00,Wunderground v.1.15,2013-02-02 20:53:00,
2013-02-02 14:58:00,10.7,3.7,30.17,North,355,2.0,6.0,73,0.00,,,0.00,Wunderground v.1.15,2013-02-02 20:58:00,
2013-02-02 15:03:00,10.4,3.5,30.17,North,350,6.0,7.0,73,0.00,,,0.00,Wunderground v.1.15,2013-02-02 21:03:00,
2013-02-02 15:09:00,10.0,3.1,30.17,NNW,340,2.0,7.0,73,0.00,,,0.00,Wunderground v.1.15,2013-02-02 21:09:00,
2013-02-02 15:14:00,9.8,2.9,30.17,North,355,1.0,7.0,73,0.00,,,0.00,Wunderground v.1.15,2013-02-02 21:14:00,
2013-02-02 15:19:00,8.5,2.2,30.17,NW,309,0.0,7.0,75,0.00,,,0.00,Wunderground v.1.15,2013-02-02 21:19:00,
2013-02-02 15:24:00,8.5,2.2,30.18,North,5,0.0,5.0,75,0.00,,,0.00,Wunderground v.1.15,2013-02-02 21:24:00,
2013-02-02 15:30:00,8.4,2.1,30.17,North,5,0.0,1.0,75,0.00,,,0.00,Wunderground v.1.15,2013-02-02 21:30:00,
2013-02-02 15:35:00,8.2,1.9,30.18,NW,313,1.0,2.0,75,0.00,,,0.00,Wunderground v.1.15,2013-02-02 21:35:00,
2013-02-02 15:40:00,8.1,1.8,30.18,NW,318,2.0,2.0,75,0.00,,,0.00,Wunderground v.1.15,2013-02-02 21:40:00,
2013-02-02 15:45:00,9.0,2.7,30.18,NW,309,6.0,6.0,75,0.00,,,0.00,Wunderground v.1.15,2013-02-02 21:45:00,
2013-02-02 15:50:00,8.9,2.3,30.18,NNW,334,3.0,3.0,74,0.00,,,0.00,Wunderground v.1.15,2013-02-02 21:50:00,
2013-02-02 15:55:00,8.8,2.5,30.17,NNW,335,5.0,6.0,75,0.00,,,0.00,Wunderground v.1.15,2013-02-02 21:55:00,
2013-02-02 16:00:00,8.7,2.4,30.17,NW,325,2.0,2.0,75,0.00,,,0.00,Wunderground v.1.15,2013-02-02 22:00:00,
2013-02-02 16:05:00,8.7,2.4,30.17,NW,314,4.0,4.0,75,0.00,,,0.00,Wunderground v.1.15,2013-02-02 22:05:00,
2013-02-02 16:10:00,8.6,2.3,30.17,NW,325,3.0,5.0,75,0.00,,,0.00,Wunderground v.1.15,2013-02-02 22:10:00,
2013-02-02 16:16:00,7.2,1.2,30.17,NW,323,0.0,6.0,76,0.00,,,0.00,Wunderground v.1.15,2013-02-02 22:16:00,
2013-02-02 16:21:00,7.1,1.1,30.17,NNW,342,0.0,2.0,76,0.00,,,0.00,Wunderground v.1.15,2013-02-02 22:21:00,
2013-02-02 16:26:00,7.0,1.3,30.17,NNW,342,0.0,2.0,77,0.00,,,0.00,Wunderground v.1.15,2013-02-02 22:26:00,
2013-02-02 16:31:00,8.3,2.3,30.18,NW,321,2.0,3.0,76,0.00,,,0.00,Wunderground v.1.15,2013-02-02 22:31:00,
2013-02-02 16:36:00,8.2,2.2,30.18,WNW,284,4.0,5.0,76,0.00,,,0.00,Wunderground v.1.15,2013-02-02 22:36:00,
2013-02-02 16:41:00,8.1,1.8,30.18,NW,326,2.0,3.0,75,0.00,,,0.00,Wunderground v.1.15,2013-02-02 22:41:00,
2013-02-02 16:47:00,8.0,1.7,30.18,NNW,330,5.0,5.0,75,0.00,,,0.00,Wunderground v.1.15,2013-02-02 22:47:00,
2013-02-02 16:52:00,8.0,1.7,30.18,NNW,340,1.0,4.0,75,0.00,,,0.00,Wunderground v.1.15,2013-02-02 22:52:00,
2013-02-02 16:57:00,7.8,1.8,30.18,NW,314,4.0,5.0,76,0.00,,,0.00,Wunderground v.1.15,2013-02-02 22:57:00,
2013-02-02 17:02:00,6.1,0.4,30.18,NNW,342,0.0,3.0,77,0.00,,,0.00,Wunderground v.1.15,2013-02-02 23:02:00,
2013-02-02 17:08:00,5.9,0.2,30.18,NNW,342,0.0,3.0,77,0.00,,,0.00,Wunderground v.1.15,2013-02-02 23:08:00,
2013-02-02 17:12:00,5.8,0.4,30.18,NNW,342,0.0,0.0,78,0.00,,,0.00,Wunderground v.1.15,2013-02-02 23:12:00,
2013-02-02 17:18:00,5.6,0.2,30.18,NNW,342,0.0,0.0,78,0.00,,,0.00,Wunderground v.1.15,2013-02-02 23:18:00,
2013-02-02 17:23:00,5.4,0.0,30.18,NNW,342,0.0,0.0,78,0.00,,,0.00,Wunderground v.1.15,2013-02-02 23:23:00,
2013-02-02 17:28:00,5.2,-0.2,30.18,NNW,342,0.0,0.0,78,0.00,,,0.00,Wunderground v.1.15,2013-02-02 23:28:00,
2013-02-02 17:33:00,5.0,-0.1,30.18,NNW,342,0.0,0.0,79,0.00,,,0.00,Wunderground v.1.15,2013-02-02 23:33:00,
2013-02-02 17:38:00,4.9,-0.2,30.18,NNW,342,0.0,0.0,79,0.00,,,0.00,Wunderground v.1.15,2013-02-02 23:38:00,
2013-02-02 17:44:00,4.6,-0.5,30.19,NNW,342,0.0,0.0,79,0.00,,,0.00,Wunderground v.1.15,2013-02-02 23:44:00,
2013-02-02 17:49:00,4.4,-0.7,30.19,NNW,342,0.0,0.0,79,0.00,,,0.00,Wunderground v.1.15,2013-02-02 23:49:00,
2013-02-02 17:54:00,4.3,-0.8,30.19,NNW,342,0.0,0.0,79,0.00,,,0.00,Wunderground v.1.15,2013-02-02 23:54:00,
2013-02-02 17:59:00,4.2,-0.9,30.19,NNW,342,0.0,0.0,79,0.00,,,0.00,Wunderground v.1.15,2013-02-02 23:59:00,
2013-02-02 18:05:00,4.2,-0.6,30.19,NNW,342,0.0,0.0,80,0.00,,,0.00,Wunderground v.1.15,2013-02-03 00:05:00,
2013-02-02 18:10:00,4.1,-0.7,30.19,NNW,342,0.0,0.0,80,0.00,,,0.00,Wunderground v.1.15,2013-02-03 00:10:00,
2013-02-02 18:16:00,4.3,-0.2,30.19,NNW,342,0.0,0.0,81,0.00,,,0.00,Wunderground v.1.15,2013-02-03 00:16:00,
2013-02-02 18:21:00,4.5,0.0,30.19,NNW,342,0.0,0.0,81,0.00,,,0.00,Wunderground v.1.15,2013-02-03 00:21:00,
2013-02-02 18:26:00,4.5,0.0,30.19,NNW,342,0.0,0.0,81,0.00,,,0.00,Wunderground v.1.15,2013-02-03 00:26:00,
2013-02-02 18:31:00,4.5,0.0,30.19,NNW,342,0.0,0.0,81,0.00,,,0.00,Wunderground v.1.15,2013-02-03 00:31:00,
2013-02-02 18:37:00,4.5,0.0,30.19,NNW,342,0.0,0.0,81,0.00,,,0.00,Wunderground v.1.15,2013-02-03 00:37:00,
2013-02-02 18:42:00,4.5,0.0,30.18,NNW,342,0.0,0.0,81,0.00,,,0.00,Wunderground v.1.15,2013-02-03 00:42:00,
2013-02-02 18:47:00,4.4,-0.1,30.18,NNW,342,0.0,0.0,81,0.00,,,0.00,Wunderground v.1.15,2013-02-03 00:47:00,
2013-02-02 18:52:00,4.5,0.0,30.19,NNW,342,0.0,0.0,81,0.00,,,0.00,Wunderground v.1.15,2013-02-03 00:52:00,
2013-02-02 18:58:00,5.7,0.6,30.19,NW,325,0.0,0.0,79,0.00,,,0.00,Wunderground v.1.15,2013-02-03 00:58:00,
2013-02-02 19:03:00,5.6,0.8,30.19,NW,325,0.0,0.0,80,0.00,,,0.00,Wunderground v.1.15,2013-02-03 01:03:00,
2013-02-02 19:08:00,5.4,0.6,30.18,NW,325,0.0,0.0,80,0.00,,,0.00,Wunderground v.1.15,2013-02-03 01:08:00,
2013-02-02 19:13:00,5.4,0.6,30.18,NW,325,0.0,0.0,80,0.00,,,0.00,Wunderground v.1.15,2013-02-03 01:13:00,
2013-02-02 19:18:00,5.3,0.7,30.18,NW,325,0.0,0.0,81,0.00,,,0.00,Wunderground v.1.15,2013-02-03 01:18:00,
2013-02-02 19:23:00,5.3,0.7,30.18,NW,325,0.0,0.0,81,0.00,,,0.00,Wunderground v.1.15,2013-02-03 01:23:00,
2013-02-02 19:29:00,5.3,0.7,30.18,NW,325,0.0,0.0,81,0.00,,,0.00,Wunderground v.1.15,2013-02-03 01:29:00,
2013-02-02 19:35:00,5.2,0.9,30.18,NW,325,0.0,0.0,82,0.00,,,0.00,Wunderground v.1.15,2013-02-03 01:35:00,
2013-02-02 19:40:00,5.3,1.0,30.18,NW,325,0.0,0.0,82,0.00,,,0.00,Wunderground v.1.15,2013-02-03 01:40:00,
2013-02-02 19:45:00,5.3,1.3,30.17,NW,325,0.0,0.0,83,0.00,,,0.00,Wunderground v.1.15,2013-02-03 01:45:00,
2013-02-02 19:50:00,5.3,1.3,30.18,NW,325,0.0,0.0,83,0.00,,,0.00,Wunderground v.1.15,2013-02-03 01:50:00,
2013-02-02 19:55:00,5.3,1.3,30.18,NW,325,0.0,0.0,83,0.00,,,0.00,Wunderground v.1.15,2013-02-03 01:55:00,
2013-02-02 20:00:00,5.4,1.4,30.18,NW,325,0.0,0.0,83,0.00,,,0.00,Wunderground v.1.15,2013-02-03 02:00:00,
2013-02-02 20:05:00,5.3,1.3,30.17,NW,325,0.0,0.0,83,0.00,,,0.00,Wunderground v.1.15,2013-02-03 02:05:00,
2013-02-02 20:10:00,5.3,1.3,30.17,NW,325,0.0,0.0,83,0.00,,,0.00,Wunderground v.1.15,2013-02-03 02:10:00,
2013-02-02 20:15:00,5.3,1.3,30.17,NW,325,0.0,0.0,83,0.00,,,0.00,Wunderground v.1.15,2013-02-03 02:15:00,
2013-02-02 20:21:00,5.3,1.3,30.17,NW,325,0.0,0.0,83,0.00,,,0.00,Wunderground v.1.15,2013-02-03 02:21:00,
2013-02-02 20:26:00,5.3,1.3,30.16,NW,325,0.0,0.0,83,0.00,,,0.00,Wunderground v.1.15,2013-02-03 02:26:00,
2013-02-02 20:31:00,5.2,1.2,30.16,NW,325,0.0,0.0,83,0.00,,,0.00,Wunderground v.1.15,2013-02-03 02:31:00,
2013-02-02 20:36:00,5.0,1.0,30.16,NW,325,0.0,0.0,83,0.00,,,0.00,Wunderground v.1.15,2013-02-03 02:36:00,
2013-02-02 20:41:00,4.7,0.7,30.15,NW,325,0.0,0.0,83,0.00,,,0.00,Wunderground v.1.15,2013-02-03 02:41:00,
2013-02-02 20:47:00,4.5,0.5,30.16,NW,325,0.0,0.0,83,0.00,,,0.00,Wunderground v.1.15,2013-02-03 02:47:00,
2013-02-02 20:52:00,4.1,0.1,30.15,NW,325,0.0,0.0,83,0.00,,,0.00,Wunderground v.1.15,2013-02-03 02:52:00,
2013-02-02 20:57:00,3.7,-0.3,30.15,NW,325,0.0,0.0,83,0.00,,,0.00,Wunderground v.1.15,2013-02-03 02:57:00,
2013-02-02 21:02:00,3.3,-0.7,30.15,NW,325,0.0,0.0,83,0.00,,,0.00,Wunderground v.1.15,2013-02-03 03:02:00,
2013-02-02 21:07:00,2.9,-1.1,30.15,NW,325,0.0,0.0,83,0.00,,,0.00,Wunderground v.1.15,2013-02-03 03:07:00,
2013-02-02 21:13:00,2.5,-1.5,30.15,NW,325,0.0,0.0,83,0.00,,,0.00,Wunderground v.1.15,2013-02-03 03:13:00,
2013-02-02 21:19:00,2.2,-1.8,30.14,NW,325,0.0,0.0,83,0.00,,,0.00,Wunderground v.1.15,2013-02-03 03:19:00,
2013-02-02 21:24:00,1.8,-1.9,30.14,NW,325,0.0,0.0,84,0.00,,,0.00,Wunderground v.1.15,2013-02-03 03:24:00,
2013-02-02 21:29:00,2.4,-1.6,30.14,NNW,342,0.0,0.0,83,0.00,,,0.00,Wunderground v.1.15,2013-02-03 03:29:00,
2013-02-02 21:34:00,2.2,-1.8,30.14,NNW,342,0.0,0.0,83,0.00,,,0.00,Wunderground v.1.15,2013-02-03 03:34:00,
2013-02-02 21:39:00,1.9,-1.8,30.14,NNW,342,0.0,0.0,84,0.00,,,0.00,Wunderground v.1.15,2013-02-03 03:39:00,
2013-02-02 21:44:00,1.6,-2.4,30.13,NNW,342,0.0,0.0,83,0.00,,,0.00,Wunderground v.1.15,2013-02-03 03:44:00,
2013-02-02 21:49:00,1.4,-2.3,30.13,NNW,342,0.0,0.0,84,0.00,,,0.00,Wunderground v.1.15,2013-02-03 03:49:00,
2013-02-02 21:55:00,1.4,-2.3,30.13,NNW,342,0.0,0.0,84,0.00,,,0.00,Wunderground v.1.15,2013-02-03 03:55:00,
2013-02-02 22:00:00,1.4,-2.1,30.13,NNW,342,0.0,0.0,85,0.00,,,0.00,Wunderground v.1.15,2013-02-03 04:00:00,
2013-02-02 22:05:00,1.3,-2.2,30.13,NNW,342,0.0,0.0,85,0.00,,,0.00,Wunderground v.1.15,2013-02-03 04:05:00,
2013-02-02 22:10:00,1.1,-2.4,30.13,NNW,342,0.0,0.0,85,0.00,,,0.00,Wunderground v.1.15,2013-02-03 04:10:00,
2013-02-02 22:15:00,0.6,-2.8,30.13,NNW,342,0.0,0.0,85,0.00,,,0.00,Wunderground v.1.15,2013-02-03 04:15:00,
2013-02-02 22:20:00,0.5,-2.9,30.13,NNW,342,0.0,0.0,85,0.00,,,0.00,Wunderground v.1.15,2013-02-03 04:20:00,
2013-02-02 22:25:00,0.6,-2.8,30.12,NNW,342,0.0,0.0,85,0.00,,,0.00,Wunderground v.1.15,2013-02-03 04:25:00,
2013-02-02 22:30:00,0.7,-2.5,30.12,NNW,342,0.0,0.0,86,0.00,,,0.00,Wunderground v.1.15,2013-02-03 04:30:00,
2013-02-02 22:36:00,0.9,-2.3,30.13,NNW,342,0.0,0.0,86,0.00,,,0.00,Wunderground v.1.15,2013-02-03 04:36:00,
2013-02-02 22:41:00,0.8,-2.4,30.12,NNW,342,0.0,0.0,86,0.00,,,0.00,Wunderground v.1.15,2013-02-03 04:41:00,
2013-02-02 22:46:00,0.6,-2.6,30.11,NNW,342,0.0,0.0,86,0.00,,,0.00,Wunderground v.1.15,2013-02-03 04:46:00,
2013-02-02 22:51:00,0.5,-2.7,30.12,NNW,342,0.0,0.0,86,0.00,,,0.00,Wunderground v.1.15,2013-02-03 04:51:00,
2013-02-02 22:56:00,0.3,-2.9,30.11,NNW,342,0.0,0.0,86,0.00,,,0.00,Wunderground v.1.15,2013-02-03 04:56:00,
2013-02-02 23:00:00,0.2,-3.0,30.11,NNW,342,0.0,0.0,86,0.00,,,0.00,Wunderground v.1.15,2013-02-03 05:00:00,
2013-02-02 23:05:00,0.1,-3.1,30.12,NNW,342,0.0,0.0,86,0.00,,,0.00,Wunderground v.1.15,2013-02-03 05:05:00,
2013-02-02 23:10:00,0.0,-3.2,30.11,NNW,342,0.0,0.0,86,0.00,,,0.00,Wunderground v.1.15,2013-02-03 05:10:00,
2013-02-02 23:15:00,-0.2,-3.4,30.11,NNW,342,0.0,0.0,86,0.00,,,0.00,Wunderground v.1.15,2013-02-03 05:15:00,
2013-02-02 23:21:00,-0.3,-3.5,30.11,NNW,342,0.0,0.0,86,0.00,,,0.00,Wunderground v.1.15,2013-02-03 05:21:00,
2013-02-02 23:26:00,-0.3,-3.2,30.11,NNW,342,0.0,0.0,87,0.00,,,0.00,Wunderground v.1.15,2013-02-03 05:26:00,
2013-02-02 23:31:00,-0.2,-3.1,30.11,NNW,342,0.0,0.0,87,0.00,,,0.00,Wunderground v.1.15,2013-02-03 05:31:00,
2013-02-02 23:37:00,0.1,-2.9,30.11,NNW,342,0.0,0.0,87,0.00,,,0.00,Wunderground v.1.15,2013-02-03 05:37:00,
2013-02-02 23:43:00,0.3,-2.7,30.10,NNW,342,0.0,0.0,87,0.00,,,0.00,Wunderground v.1.15,2013-02-03 05:43:00,
2013-02-02 23:48:00,0.6,-2.4,30.10,NNW,342,0.0,0.0,87,0.00,,,0.00,Wunderground v.1.15,2013-02-03 05:48:00,
2013-02-02 23:53:00,0.8,-2.2,30.10,NNW,342,0.0,0.0,87,0.00,,,0.00,Wunderground v.1.15,2013-02-03 05:53:00,
2013-02-02 23:59:00,0.9,-2.1,30.10,NNW,342,0.0,0.0,87,0.00,,,0.00,Wunderground v.1.15,2013-02-03 05:59:00,